#timestamp,LO_Frequency,Hit,StdDev 
1710280815.9,286046997.3,N
1710280835.7,286046996.6,Y
1710280855.6,286046998.3,P
1710280875.4,286046999.3,N
1710280895.2,286047001.1,N
1710280915.1,286047000.1,N
1710280916.0,286047000.1,N
1710280935.8,286047002.5,N
1710280955.7,286047002.8,N
1710280975.5,286047002.0,N
1710280995.3,286047004.1,N
1710281015.2,286047003.0,N
1710281035.0,286047003.6,N
1710281035.9,286047003.6,N
1710281055.8,286047003.3,N
1710281075.6,286047006.0,N
1710281095.4,286047005.2,N
1710281115.3,286047003.2,N
1710281135.1,286047003.7,N
1710281155.8,286047003.8,N
1710281175.7,286047003.9,N
1710281195.5,286047001.6,N
1710281215.4,286046999.7,N
1710281235.2,286047000.6,N
1710281255.0,286047000.9,N
1710281255.9,286047000.9,N
1710281275.8,286047000.1,N
1710281295.6,286047000.4,N
1710281315.5,286047000.1,N
1710281335.3,286047000.2,N
1710281355.1,286047002.1,N
1710281375.9,286047001.4,N
1710281395.7,286047002.3,N
1710281415.6,286047002.3,N
1710281435.4,286046999.9,N
1710281455.2,286047001.4,N
1710281475.1,286047000.3,N
1710281476.0,286047000.3,N
1710281495.8,286047000.7,N
1710281515.6,286046998.8,N
1710281535.5,286046998.2,N
1710281555.3,286046998.4,N
1710281575.2,286047001.1,N
1710281595.9,286046998.5,N
1710281615.7,286046998.1,N
1710281635.6,286046998.1,N
1710281655.4,286047001.1,N
1710281675.2,286047001.1,N
1710281695.1,286047000.1,N
1710281696.0,286047000.1,N
1710281715.8,286046998.1,N
1710281735.7,286047000.9,N
1710281755.5,286047000.2,N
1710281775.3,286046999.7,N
1710281795.2,286046999.9,N
1710281815.0,286047000.3,N
1710281815.9,286047000.3,N
1710281835.7,286046999.8,N
1710281855.6,286047000.3,N
1710281875.4,286047000.9,N
1710281895.3,286047000.6,N
1710281915.1,286047001.1,N
1710281916.0,286047001.1,N
1710281935.8,286046998.9,N
1710281955.7,286047001.1,N
1710281975.5,286047000.9,N
1710281995.4,286047000.6,N
1710282015.2,286047000.8,N
1710282035.0,286047000.0,N
1710282035.9,286047000.0,N
1710282055.8,286047000.3,N
1710282075.6,286047002.5,N
1710282095.4,286047002.7,N
1710282115.3,286047002.5,N
1710282135.1,286047002.3,N
1710282155.9,286047002.1,N
1710282175.7,286047000.1,N
1710282195.5,286047002.8,N
1710282215.4,286047002.8,N
1710282235.2,286047001.6,N
1710282255.0,286046999.9,N
1710282255.9,286046999.9,N
1710282275.8,286047000.6,N
1710282295.6,286046998.1,N
1710282315.5,286047000.4,N
1710282335.3,286047000.4,N
1710282355.1,286047001.1,N
1710282375.9,286047000.1,N
1710282395.7,286046999.9,N
1710282415.5,286047002.6,N
1710282435.4,286047001.6,N
1710282455.2,286047002.1,N
1710282475.1,286047002.6,N
1710282476.0,286047002.6,N
1710282495.8,286047001.6,N
1710282515.6,286046999.9,N
1710282535.5,286047000.2,N
1710282555.3,286047000.5,N
1710282575.2,286047000.0,N
1710282595.9,286046998.1,N
1710282615.7,286046996.7,N
1710282635.6,286046999.2,N
1710282655.4,286046999.4,N
1710282675.2,286046999.4,N
1710282695.1,286046999.0,N
1710282696.0,286046999.0,N
1710282715.8,286047001.0,N
1710282735.7,286046998.1,N
1710282755.5,286046998.4,N
1710282775.3,286046999.3,N
1710282795.2,286046996.7,N
1710282815.0,286046996.6,N
1710282815.9,286046996.6,N
1710282835.7,286046999.6,N
1710282855.6,286046996.6,N
1710282875.4,286046996.8,N
1710282895.3,286046997.0,N
1710282915.1,286046996.6,N
1710282935.8,286046996.5,N
1710282955.7,286047001.2,N
1710282975.5,286046999.4,N
1710282995.4,286047001.2,N
1710283015.2,286047001.2,N
1710283035.0,286047000.1,N
1710283035.9,286047000.1,N
1710283055.8,286047001.0,N
1710283075.6,286047001.1,N
1710283095.4,286047000.8,N
1710283115.3,286046998.7,N
1710283135.1,286046999.5,N
1710283155.9,286046996.5,N
1710283175.7,286046998.7,N
1710283195.5,286046999.4,N
1710283215.4,286046998.6,N
1710283235.2,286046999.0,N
1710283255.0,286046998.1,N
1710283255.9,286046998.1,N
1710283275.8,286047001.0,N
1710283295.6,286047000.8,N
1710283315.5,286046998.9,N
1710283335.3,286046999.0,N
1710283355.1,286046998.4,N
1710283375.9,286046998.2,N
1710283395.7,286046998.1,N
1710283415.5,286047001.1,N
1710283435.4,286046998.7,N
1710283455.2,286047001.0,N
1710283475.1,286046998.2,N
1710283476.0,286046998.2,N
1710283495.8,286047001.1,N
1710283515.6,286047001.1,N
1710283535.5,286047000.1,N
1710283555.3,286046999.7,N
1710283575.1,286047000.1,N
1710283595.9,286047000.4,N
1710283615.7,286047000.6,N
1710283635.6,286046998.8,N
1710283655.4,286046998.2,N
1710283675.2,286047000.9,N
1710283695.1,286047000.3,N
1710283696.0,286047000.3,N
1710283715.8,286047001.1,N
1710283735.7,286046999.5,N
1710283755.5,286046997.3,N
1710283775.3,286046995.3,Y
1710283795.2,286046995.1,P
1710283815.0,286046997.9,N
1710283815.9,286046997.9,N
1710283835.7,286046995.5,N
1710283855.6,286046996.2,N
1710283875.4,286046995.4,N
1710283895.3,286046995.9,N
1710283915.1,286046993.8,Y
1710283935.8,286046996.9,P
1710283955.7,286046998.4,P
1710283975.5,286046998.6,N
1710283995.4,286047000.2,N
1710284015.2,286047002.5,N
1710284035.0,286047001.6,N
1710284035.9,286047001.6,N
1710284055.8,286047002.0,N
1710284075.6,286047002.6,N
1710284095.4,286047002.2,N
1710284115.3,286047002.5,N
1710284135.1,286047002.5,N
1710284155.9,286047001.8,N
1710284175.7,286046999.7,N
1710284195.5,286047000.5,N
1710284215.4,286047000.8,N
1710284235.2,286047000.4,N
1710284255.0,286046998.5,N
1710284255.9,286046998.5,N
1710284275.8,286047000.8,N
1710284295.6,286046999.9,N
1710284315.5,286047002.8,N
1710284335.3,286047000.1,N
1710284355.1,286047002.1,N
1710284375.9,286047002.7,N
1710284395.7,286047001.6,N
